CAPE
365 1385 2328 2265 2025 2016 1511 1748 1903 2038 1823 1660 1612 1756 2162 1952 2062 2282 2552 2156 2302 2176 2057 1852 2036 2217 2398 2293 2208 1990 2278 2798 2252 2361 2650 2285 1820 2235 2809 2297 2117 2185 2572
639 1622 2617 2676 2307 2117 1977 1677 2016 2350 1810 1855 2115 1984 2008 1700 2019 1972 2141 2233 2268 2307 2037 2154 2218 2183 2017 2200 2417 2409 2638 2936 3024 2340 2503 2494 2126 1945 2306 2531 1756 2034 2094
791 1622 2092 2592 2485 1928 2022 1862 2521 1992 1913 2236 1970 2120 2126 1331 1636 1912 1808 2001 2153 2116 2471 2330 2284 2064 2038 2282 2464 2471 2404 2791 3009 2652 2430 1868 1911 2131 2375 2735 2649 2481 2439
764 1316 1812 2556 2639 2279 2044 2152 2509 1839 2233 2095 2161 1759 2004 1240 1270 1753 1976 1921 2028 1898 1750 2356 2293 2190 2040 2314 2391 2461 2290 2375 2353 1688 1317 1503 2006 2497 2723 2571 2217 2033 2298
329 909 1706 2799 2918 2408 2258 2289 2729 2087 1991 2184 2239 2039 1680 2036 1837 980 1410 2059 2021 1920 1824 1532 1627 1781 2050 2217 2273 2325 2252 2080 657 997 693 1387 1868 2606 2739 2564 2500 2701 2389
412 1306 2722 2948 2488 2399 2128 2369 2106 2269 2247 2242 2240 1840 1791 1677 2009 1922 1923 1336 1661 2029 2091 2012 2113 2338 2110 2031 2240 2448 2013 1500 255 0 358 1541 1795 1815 1967 2369 2522 2347 2122
1262 1842 2249 2964 2951 2682 2463 2213 1988 2248 2400 2407 2282 1982 1974 2011 1986 1640 1036 1509 1859 1465 1761 1907 1645 1741 2235 2200 2268 2199 2069 1775 833 477 403 929 1728 2747 1948 2117 1809 1577 1667
1382 1693 2073 2720 2671 2850 2438 2529 2489 2356 2021 1756 1504 1129 904 814 914 1058 1201 1490 1480 1443 1280 1294 2067 1784 1528 1672 1776 1649 1674 1490 1216 316 545 709 1425 2660 2136 2285 2306 2375 2508
1032 1424 1719 1849 2000 2296 2604 2073 1996 1864 1704 1598 1300 1030 1281 1657 1560 1834 1149 1373 1138 1262 1400 1220 942 1327 1850 1608 1350 1972 2078 1732 723 265 651 177 523 1390 2363 2564 2767 2637 1883
1091 1320 1605 1805 1778 1819 1917 2084 1971 1871 1777 1488 1082 1750 1624 1155 728 654 29 249 1248 1409 1449 1411 1469 1611 1257 1257 1623 1726 2069 1885 1141 377 165 283 258 645 1898 1624 1775 1919 2011
933 1049 1239 1415 1509 1681 1788 1737 1859 1805 1694 1346 1614 1058 342 9 0 16 24 53 942 1398 1367 1787 1508 1588 1700 1781 1867 1696 1526 1348 500 214 13 1 0 531 1363 1599 1707 2434 2783
636 708 884 972 1138 1372 1717 1490 1363 1350 1285 1338 1061 313 1 15 0 0 0 48 842 1178 799 1691 1814 1647 1576 1465 1394 1756 1468 826 566 284 37 65 89 298 1225 2131 2577 2628 2478
228 353 615 770 849 1132 1410 1308 1353 1336 1116 1076 956 128 2 17 41 13 7 47 181 455 188 414 1089 1144 1175 1082 955 943 950 537 292 250 208 295 278 638 826 1903 3005 2663 2283
137 295 415 432 605 785 1255 1030 1250 1190 955 873 499 58 216 34 0 0 2 132 80 34 26 99 673 790 731 610 539 963 575 245 306 379 210 267 697 798 701 1932 3010 2962 3009
94 185 342 400 520 1170 1160 1298 1140 1014 1037 894 536 136 69 8 0 0 7 143 89 226 93 257 525 803 573 336 111 560 531 459 197 166 98 689 891 999 1233 2748 3088 3138 3034
9 8 190 1018 684 993 1178 1400 1118 963 786 572 144 55 16 0 0 8 27 18 53 83 89 152 200 143 210 504 555 454 549 715 266 155 308 576 1623 1815 2147 2337 3058 2886 2745
2 10 270 761 717 1275 1150 1350 1097 811 625 357 144 94 59 29 9 65 9 81 114 92 230 229 295 484 445 393 244 166 421 687 439 329 478 577 1203 2543 2345 2175 2831 2711 2701
7 26 242 315 337 1016 1158 1014 974 791 554 291 171 195 156 128 207 208 101 41 45 69 79 214 184 217 285 245 46 117 440 429 530 573 281 1063 1041 937 1850 2309 2570 2471 2837
38 87 119 314 437 662 735 1072 872 697 291 237 148 234 459 375 306 181 154 194 253 318 253 281 352 283 391 272 138 203 126 151 524 517 527 573 722 976 1092 1984 2461 2512 2519
631 458 688 343 624 740 939 858 1063 806 513 318 537 469 686 614 611 355 217 181 362 425 324 286 391 277 527 271 430 811 411 395 264 376 285 358 316 457 477 774 1723 1962 2628
657 680 1054 675 569 807 1576 1164 1131 856 886 1180 1142 871 849 741 526 662 521 297 404 305 513 289 296 115 242 289 153 132 169 198 265 200 109 141 145 336 422 497 498 1261 1170
680 617 983 1665 1160 929 1426 1072 1002 1010 1274 986 927 757 675 532 507 709 653 442 449 346 295 289 421 157 257 165 26 83 61 8 66 103 123 124 148 286 234 307 279 393 973
806 859 1689 2148 2190 1616 1534 1295 1427 1259 1281 1225 1122 897 864 866 812 743 741 604 514 542 486 224 207 302 204 86 99 75 79 7 4 27 37 2 0 46 69 3 78 182 567
1190 1321 2086 2311 2675 2060 2039 2047 1381 1168 1016 1061 1080 983 491 1206 969 988 1094 907 822 822 717 512 356 299 188 111 86 74 99 52 64 54 30 2 12 16 75 79 56 102 255
1254 1877 2177 2197 2804 2573 2208 2075 2000 1445 1144 1107 1078 980 993 1048 1417 1626 1437 1235 1314 1078 976 831 357 248 333 148 100 224 245 260 171 139 45 33 20 99 5 19 4 2 286
1565 1967 2622 2499 2811 2744 2658 2534 2234 1957 1706 1656 1358 1302 1537 1192 1611 1821 1617 1636 1489 1207 1167 1082 589 393 318 512 268 206 218 229 78 46 31 33 127 123 201 122 47 150 180
CIN
-22 -1 -0 -0 -0 -0 -0 -0 -0 -0 -0 -0 -0 -1 -0 -0 -0 -0 -0 -0 -0 -0 -0 -0 -0 -0 -0 -0 -2 -1 -1 -0 -4 -0 -0 -0 -0 -0 -0 -0 -0 -0 -0
-45 -0 -0 -0 -0 -0 -0 -0 -0 -0 -0 -0 -0 -0 -0 -0 -0 -1 -0 -0 -0 -0 -0 -0 -0 -0 -0 -0 -0 -3 -4 -0 -0 -0 -0 -0 -0 -1 -1 -0 -1 -0 -0
-39 -0 -0 -0 -0 -0 -0 -0 -0 -0 -0 -0 -0 -0 -0 -0 -0 -0 -0 -0 -0 -0 -0 -0 -0 -0 -0 -0 -0 -2 -3 -0 -0 -0 -1 -6 -3 -0 -0 -0 -0 -0 -0
-61 -8 -0 -0 -0 -0 -0 -0 -0 -0 -0 -0 -0 -0 -0 -0 -0 -0 -0 -0 -0 -0 -0 -0 -0 -0 -1 -0 -0 -0 -0 -1 -5 -15 -46 -11 -0 -0 -0 -0 -0 -0 -0
-98 -39 -0 -0 -0 -0 -0 -0 -0 -0 -0 -0 -0 -0 -2 -0 -0 -4 -0 -0 -0 -0 -0 -0 -0 -0 -1 -1 -1 -2 -2 -17 -64 -29 -45 -33 -1 -0 -0 -0 -0 -0 -0
-87 -25 -0 -0 -0 -0 -0 -0 -0 -0 -0 -0 -0 -0 -0 -0 -0 -1 -0 -0 -0 -0 -0 -0 -0 -0 -1 -11 -13 -4 -3 -30 -41 -1 -49 -37 -14 -15 -3 -0 -0 -0 -0
-57 -13 -0 -0 -0 -0 -0 -0 -0 -0 -0 -0 -0 -0 -0 -0 -0 -0 -6 -1 -0 -0 -0 -0 -0 -0 -0 -3 -10 -7 -4 -15 -35 -28 -31 -45 -40 -9 -11 -0 -11 -24 -8
-82 -33 -1 -0 -0 -0 -0 -0 -0 -0 -0 -2 -0 -4 -9 -5 -2 -2 -1 -0 -0 -0 -1 -1 -0 -0 -1 -6 -18 -26 -16 -4 -24 -202 -131 -19 -20 -1 -35 -1 -0 -0 -0
-107 -97 -33 -1 -0 -0 -0 -0 -0 -0 -0 -0 -1 -5 -0 -0 -0 -0 -15 -5 -2 -0 -0 -1 -7 -3 -0 -0 -22 -20 -18 -17 -30 -62 -117 -228 -59 -15 -0 -16 -0 -0 -11
-86 -67 -49 -13 -3 -3 -1 -0 -0 -1 -0 -0 -18 -0 -0 -13 -18 -22 -71 -68 -4 -2 -1 -0 -0 -0 -3 -12 -4 -15 -18 -3 -38 -40 -27 -66 -180 -86 -1 -19 -40 -17 -7
-68 -65 -65 -59 -28 -12 -3 -3 -4 -0 -0 -1 -3 -20 -62 -80 -0 -28 -34 -126 -51 -0 -4 -3 -0 -0 -0 -0 -1 -16 -23 -12 -56 -62 -62 -220 -0 -110 -28 -0 -17 -0 -0
-76 -96 -124 -121 -84 -56 -22 -28 -37 -30 -16 -16 -44 -53 -34 -106 -25 -0 -0 -75 -36 -13 -18 -8 -5 -10 -9 -20 -25 -7 -17 -16 -41 -71 -321 -339 -240 -165 -38 -2 -1 -0 -0
-87 -102 -128 -129 -100 -71 -62 -66 -49 -53 -50 -34 -33 -73 -24 -109 -62 -121 -70 -53 -91 -42 -48 -49 -30 -28 -40 -30 -30 -66 -20 -42 -39 -42 -46 -175 -228 -140 -85 -6 -9 -3 -2
-54 -68 -79 -93 -100 -79 -69 -70 -64 -58 -47 -78 -43 -83 -88 -99 -0 -0 -35 -34 -15 -35 -63 -67 -90 -66 -52 -35 -35 -49 -80 -163 -49 -106 -96 -123 -134 -96 -78 -6 -3 -16 -0
-37 -48 -40 -88 -74 -73 -73 -71 -63 -68 -67 -58 -62 -100 -100 -77 -0 -0 -22 -30 -70 -25 -29 -36 -38 -79 -45 -27 -47 -44 -26 -20 -25 -140 -77 -75 -34 -67 -36 -2 -5 -12 -7
-13 -13 -43 -67 -78 -89 -89 -98 -120 -97 -86 -76 -71 -127 -48 -0 -0 -37 -32 -37 -57 -34 -56 -34 -58 -20 -121 -50 -62 -66 -50 -22 -14 -24 -153 -123 -33 -33 -23 -15 -7 -11 -11
-5 -4 -60 -65 -101 -83 -127 -108 -101 -113 -100 -97 -103 -72 -29 -84 -63 -30 -45 -57 -47 -43 -34 -36 -25 -44 -35 -34 -87 -121 -80 -55 -36 -57 -115 -130 -85 -26 -17 -18 -11 -9 -10
-95 -79 -70 -53 -78 -88 -132 -163 -131 -111 -89 -90 -90 -104 -19 -70 -39 -16 -37 -35 -66 -63 -67 -58 -46 -12 -59 -39 -128 -108 -72 -23 -33 -37 -9 -57 -86 -77 -38 -36 -37 -21 -10
-74 -132 -60 -63 -103 -100 -108 -112 -113 -89 -84 -62 -95 -63 -34 -42 -22 -60 -56 -37 -25 -48 -41 -47 -17 -24 -62 -37 -69 -75 -74 -6 -18 -37 -42 -31 -41 -32 -66 -84 -73 -49 -35
-82 -88 -55 -37 -78 -100 -115 -129 -95 -74 -106 -121 -113 -93 -26 -46 -36 -57 -33 -59 -37 -25 -25 -39 -31 -36 -43 -41 -37 -33 -28 -36 -17 -37 -24 -145 -22 -131 -45 -26 -89 -76 -53
-69 -90 -99 -45 -34 -112 -101 -95 -83 -94 -73 -57 -43 -36 -66 -90 -102 -55 -21 -46 -41 -38 -24 -30 -40 -40 -73 -22 -18 -20 -64 -22 -53 -44 -42 -88 -38 -200 -30 -32 -97 -55 -110
-111 -55 -88 -109 -125 -28 -98 -67 -9 -100 -73 -70 -66 -88 -143 -184 -152 -73 -39 -29 -41 -22 -35 -41 -45 -32 -35 -24 -67 -56 -63 -34 -58 -53 -62 -45 -61 -208 -39 -177 -41 -33 -75
-131 -169 -143 -93 -84 -124 -98 -10 -69 -57 -64 -77 -80 -108 -128 -107 -68 -108 -67 -17 -28 -40 -27 -33 -44 -32 -43 -66 -88 -49 -21 -41 -81 -127 -29 -12 -151 -34 -167 -198 -176 -39 -29
-129 -150 -117 -112 -110 -89 -52 -13 -36 -44 -36 -88 -87 -73 -164 -70 -75 -72 -59 -39 -25 -33 -35 -33 -27 -39 -56 -48 -82 -102 -72 -96 -91 -51 -167 -55 -94 -262 -185 -173 -116 -32 -30
-108 -112 -140 -148 -128 -97 -97 -48 -10 -32 -47 -79 -76 -77 -42 -123 -57 -24 -16 -35 -30 -31 -37 -22 -45 -51 -45 -37 -89 -44 -23 -36 -40 -37 -10 -73 -87 -180 -21 -169 -100 -15 -60
-105 -103 -145 -169 -140 -118 -95 -64 -45 -23 -31 -57 -40 -76 -56 -47 -32 -19 -21 -24 -20 -21 -30 -22 -16 -41 -60 -23 -48 -49 -57 -24 -22 -61 -90 -84 -29 -25 -44 -55 -150 -143 -173
Wind_Speed
9 8 11 11 11 11 11 11 10 11 11 9 7 7 6 4 4 3 5 6 6 6 8 7 8 9 10 13 15 15 14 15 17 16 14 11 10 12 12 8 8 8 10
14 12 13 13 12 11 11 9 10 11 10 8 7 7 5 3 2 2 3 5 6 5 9 10 10 13 12 14 17 18 18 17 18 18 13 8 5 6 8 10 9 4 4
12 11 11 13 13 12 10 9 10 10 10 7 6 6 5 3 2 2 1 2 5 6 10 10 12 13 15 15 14 13 14 17 18 22 11 8 4 8 10 10 10 10 5
16 10 10 14 13 13 11 9 10 11 10 7 7 5 3 4 2 2 3 4 6 8 8 11 14 15 14 15 14 14 13 13 16 19 10 2 7 6 7 10 11 10 9
15 12 12 15 13 14 13 11 11 10 9 7 5 5 5 6 2 5 4 4 7 6 9 11 14 15 14 15 13 12 15 13 10 12 11 7 4 9 10 10 10 11 10
15 12 14 15 15 15 14 12 11 11 10 10 10 7 6 6 7 7 7 6 7 7 6 8 11 13 12 14 12 11 13 14 3 nan 5 5 5 10 11 11 9 9 10
15 13 11 15 15 15 15 14 13 11 13 13 12 8 7 7 7 8 7 9 8 8 7 8 9 12 12 12 10 9 8 18 9 8 2 5 5 12 9 10 10 11 11
19 15 12 16 16 16 16 16 15 13 13 15 12 11 8 5 4 5 7 9 9 7 7 7 7 10 12 10 7 5 6 10 14 12 8 3 2 9 12 8 8 9 11
16 16 13 11 15 17 16 16 14 14 14 15 12 11 11 7 4 6 7 4 6 9 7 6 7 8 9 11 10 9 5 6 21 17 17 3 1 7 15 10 7 8 10
18 13 13 9 7 6 8 16 16 15 16 15 13 11 13 11 8 7 nan 5 5 7 8 8 9 9 10 10 10 12 10 8 13 20 14 1 6 5 7 13 12 12 11
17 17 15 13 10 8 7 10 13 14 17 17 14 15 17 nan nan nan nan nan 5 8 9 11 12 14 13 13 12 12 15 8 9 17 nan nan nan 7 5 11 13 15 14
19 19 17 18 15 12 10 8 9 12 11 12 10 14 nan nan nan nan nan nan 6 7 9 12 15 17 17 11 7 11 4 11 10 14 nan nan nan 11 11 11 14 16 17
23 16 18 18 17 16 12 11 8 8 10 13 11 10 nan nan nan nan nan nan 4 7 7 10 7 8 11 11 11 12 13 2 6 4 7 13 16 19 17 18 20 22 20
13 17 20 21 20 14 15 14 12 13 11 14 14 nan 3 nan nan nan nan 4 nan nan nan nan 11 10 14 11 12 14 18 12 9 11 17 17 29 23 23 25 23 19 20
nan 17 20 16 16 15 15 18 12 11 7 13 15 10 nan nan nan nan nan 3 nan 2 nan 10 10 13 12 9 10 8 13 12 10 9 nan 29 26 23 27 28 20 17 18
nan nan 19 15 16 16 17 18 9 5 9 12 11 nan nan nan nan nan nan nan nan nan nan 8 10 11 12 11 6 4 5 9 11 12 9 13 28 28 27 21 20 18 17
nan nan 19 19 18 17 19 18 12 9 10 12 11 nan nan nan nan nan nan nan 2 nan 7 5 5 8 10 9 5 7 5 6 6 5 7 9 11 23 21 20 19 18 19
nan nan 17 19 20 16 17 16 15 11 9 10 9 6 8 8 8 7 5 nan nan nan nan 6 9 7 8 3 nan 3 5 5 5 5 4 5 7 6 14 21 19 20 20
nan nan 15 16 19 19 15 13 14 13 11 11 9 6 8 7 7 7 5 3 3 6 9 11 12 13 10 7 6 5 6 6 8 12 8 12 4 1 2 12 16 15 18
15 18 15 18 20 19 14 11 10 12 13 14 9 7 5 5 7 9 8 5 5 6 10 13 12 10 11 10 6 6 5 4 7 12 11 9 12 9 5 8 6 7 21
18 19 16 17 20 16 12 11 10 11 10 12 13 11 8 2 7 10 10 9 9 10 13 14 12 13 14 12 11 7 3 2 5 10 11 16 16 14 14 14 14 11 9
25 26 22 20 24 23 18 16 13 12 10 12 17 13 11 8 6 8 11 10 8 9 12 14 13 11 13 14 nan nan nan nan nan 8 9 11 14 13 20 22 16 18 11
25 27 24 23 29 29 25 18 13 11 9 11 12 13 13 12 11 10 12 12 11 13 15 16 13 13 10 nan nan nan nan nan nan nan nan nan nan nan nan nan nan 12 10
26 25 29 28 30 27 25 23 22 17 16 16 15 15 14 12 12 11 15 17 15 15 15 14 14 11 13 7 nan nan nan nan nan nan nan nan nan nan nan nan nan 9 19
28 29 31 31 31 31 29 25 23 18 14 14 17 18 16 15 16 14 18 19 17 16 15 17 15 14 10 9 8 12 9 8 12 13 nan nan nan nan nan nan nan nan 11
28 29 32 33 31 33 35 29 26 21 20 18 16 15 16 18 19 21 21 21 21 17 14 15 13 14 11 8 7 8 11 11 nan nan nan nan 8 10 12 17 nan 13 12
Wind_Direction
12 22 10 343 335 326 328 323 324 322 313 306 297 276 241 232 240 269 314 311 308 325 340 324 302 304 321 318 317 326 324 323 317 324 328 341 12 14 26 334 346 358 331
336 359 353 344 339 335 332 330 338 331 326 329 314 288 262 265 240 306 303 307 309 316 316 326 318 325 329 326 331 330 332 330 333 324 318 308 358 46 34 324 326 348 333
327 344 344 344 341 340 336 336 334 326 340 320 311 284 282 281 259 230 284 316 321 321 317 317 323 328 332 328 322 319 323 334 336 329 324 340 11 340 341 329 322 315 309
320 340 340 341 341 340 335 332 321 334 330 331 324 300 284 310 302 274 277 330 331 320 328 329 321 327 330 324 320 323 327 342 336 2 357 39 345 335 338 336 327 323 312
337 337 346 337 338 339 339 329 320 323 329 327 309 312 317 310 313 293 285 320 312 319 327 331 323 326 327 321 322 334 344 344 0 21 9 325 19 348 350 346 334 322 312
325 330 340 335 331 335 337 332 326 325 323 325 316 317 310 307 306 302 311 318 314 318 324 326 323 324 326 321 341 340 332 323 286 nan 284 300 337 339 356 3 5 341 326
316 327 339 336 337 336 334 326 325 332 328 303 288 293 325 332 321 327 320 301 319 325 340 333 345 329 317 326 347 336 337 315 318 244 173 151 306 343 357 344 359 5 359
325 330 338 334 334 335 334 326 321 320 301 290 303 320 329 333 344 352 330 325 318 326 340 331 336 334 329 327 355 1 335 318 295 294 317 194 316 351 335 354 359 14 12
326 334 340 350 344 335 330 329 325 331 312 311 324 324 326 318 284 253 238 195 345 338 352 350 354 352 332 328 1 22 6 329 330 351 330 256 77 94 344 338 5 28 15
338 336 341 357 355 345 336 325 318 325 323 329 327 323 301 297 328 312 nan 218 40 5 5 9 10 16 0 355 359 12 25 342 356 357 18 250 69 90 42 340 357 24 15
344 354 352 348 358 347 317 330 327 326 317 336 335 332 302 nan nan nan nan nan 31 42 13 23 26 19 12 27 17 16 29 6 333 314 nan nan nan 39 70 9 7 21 17
356 360 358 348 355 341 342 333 318 316 316 326 3 330 nan nan nan nan nan nan 24 52 30 34 32 23 17 358 1 18 319 43 24 52 nan nan nan 28 41 57 26 22 12
8 5 3 360 358 338 337 323 311 298 303 319 343 15 nan nan nan nan nan nan 307 12 345 6 26 7 8 2 9 333 310 311 33 65 134 95 44 43 54 58 29 19 20
11 355 359 3 2 352 326 326 308 310 307 312 326 nan 330 nan nan nan nan 299 nan nan nan nan 355 354 349 7 0 349 332 13 350 312 298 89 66 52 43 49 38 14 22
nan 352 360 1 353 341 335 326 290 307 318 328 322 304 nan nan nan nan nan 257 nan 5 nan 1 357 337 340 1 347 334 340 357 354 348 nan 21 59 46 46 39 30 19 23
nan nan 347 349 350 348 356 352 358 355 358 360 347 nan nan nan nan nan nan nan nan nan nan 1 347 340 336 0 329 297 298 335 354 347 2 14 35 48 46 39 36 29 30
nan nan 338 341 351 358 2 5 359 359 6 20 20 nan nan nan nan nan nan nan 44 nan 23 2 330 348 328 336 324 292 246 219 234 261 340 4 35 49 46 43 43 43 44
nan nan 349 352 358 360 358 4 6 0 358 9 23 11 3 1 355 350 343 nan nan nan nan 330 354 341 343 355 nan 333 273 243 275 322 312 293 0 34 54 47 41 46 52
nan nan 13 357 1 4 6 356 353 7 5 350 346 345 346 350 346 331 323 318 327 293 300 318 331 322 336 328 325 312 293 275 268 256 232 248 250 198 21 64 55 56 61
348 350 10 7 9 2 4 346 350 354 355 354 322 314 330 310 357 351 340 346 342 335 330 320 320 313 314 300 294 304 321 266 274 274 245 222 218 227 178 119 92 81 73
355 355 2 5 15 2 351 351 356 1 352 356 358 330 291 215 5 352 337 338 343 332 338 328 310 306 290 276 288 266 261 347 287 258 261 253 209 227 226 209 177 128 108
2 7 9 0 360 7 356 349 346 358 2 352 7 20 29 31 13 355 338 341 340 340 356 345 325 291 304 307 nan nan nan nan nan 275 270 276 278 229 233 202 167 152 111
18 20 24 18 8 4 359 345 336 339 348 351 360 10 15 8 11 355 347 336 354 349 349 2 331 308 297 nan nan nan nan nan nan nan nan nan nan nan nan nan nan 168 179
11 8 7 5 2 4 2 355 345 349 350 347 349 352 359 352 356 339 324 333 337 331 342 358 352 325 294 271 nan nan nan nan nan nan nan nan nan nan nan nan nan 205 181
5 1 2 359 353 350 354 353 355 352 349 343 339 353 2 353 349 337 330 328 323 319 330 341 335 344 330 280 301 273 285 281 272 285 nan nan nan nan nan nan nan nan 226
357 358 351 349 346 345 343 343 343 352 358 349 345 345 340 332 329 326 317 309 306 303 308 312 323 323 330 325 323 305 298 288 nan nan nan nan 216 221 251 283 nan 263 244